sat.trackr.live / text

‹ back to catalog

STARLINK-3655

NORAD 51983 · 2022-025AD

PAYLOAD ACTIVE UNKNOWN

§ Identity

Operator
Country
US
Launch date
2022-03-09
Launch site
AFETR
Launch vehicle
Mass (kg)
RCS (m²)

Purposes: comms

External: N2YO · Heavens-Above · Gunter

§ Orbital elements

Epoch: 2026-05-25T01:15:52.899840Z

Period
95.44 min
Inclination
53.2133°
Eccentricity
0.0001564
Mean motion
15.08840605 rev/d
Perigee alt
538.7 km
Apogee alt
540.8 km
Semi-major
6,917.9 km
B*
-1.3437e-5
RAAN
56.3196°
Arg perigee
87.5769°
Mean anomaly
272.5402°
Rev number
23,258

§ Raw data

STARLINK-36551 51983U 22025AD  26145.05269560 -.00000502  00000+0 -13437-4 0  99982 51983  53.2133  56.3196 0001564  87.5769 272.5402 15.08840605232582

JSON: /api/v1/satellites/51983 · /tle

For live sub-satellite position, see the globe view (requires WebGL).

§ Visibility from observer

Set your observer location to see the next 7 days of passes ≥ 10°. The values pass through the URL so the page stays shareable.

No JS? Fill the form by hand. The geolocation button needs JavaScript.